Weather History for PAKW - January, 2013

Change the Weather History Date:

Thursday, January 17, 2013

  Actual Average Record
Temperature  
Mean Temperature 42 °F -  
Max Temperature 46 °F 37 °F 55 °F (2009)
Min Temperature 37 °F 29 °F 6 °F (2012)
Degree Days  
Heating Degree Days 22    
Moisture  
Dew Point 41 °F    
Average Humidity 93    
Maximum Humidity 100    
Minimum Humidity 86    
Precipitation  
Precipitation 0.72 in - - ()
Sea Level Pressure  
Sea Level Pressure 29.85 in    
Wind  
Wind Speed 9 mph (SSW)    
Max Wind Speed 14 mph    
Max Gust Speed 28 mph    
Visibility 6 miles    
Events Rain    
Averages and records for this station are not official NWS values.
T = Trace of Precipitation, MM = Missing Value Source: NWS Daily Summary

Daily Weather History Graph

Daily Weather History Graph

Search for Another Location

Airport or City:

Trip Planner

Search our weather history database for the weather conditions in past years. The results will help you decide how hot, cold, wet, or windy it might be!

Date:

Astronomy

Jan. 17, 2013 Rise Set
Actual Time 8:08 AM AKST 3:57 PM AKST
Civil Twilight 7:24 AM AKST 4:40 PM AKST
Nautical Twilight 6:38 AM AKST 5:27 PM AKST
Astronomical Twilight 5:54 AM AKST 6:11 PM AKST
Moon 9:59 AM AKST (1/17) No Moon Set
Length of Visible Light 9h 16m
Length of Day
7h 49m
Waxing Crescent, 39% of the Moon is Illuminated
Jan 17
Waxing Crescent
Jan 18
First Quarter
Jan 26
Full
Feb 3
Last Quarter
Feb 9
New

Hourly Weather History & Observations

Time (AKST) Temp. Windchill Dew Point Humidity Pressure Visibility Wind Dir Wind Speed Gust Speed Precip Events Conditions
12:53 AM 45.0 °F 40.1 °F 42.1 °F 90% 29.89 in 10.0 mi South 9.2 mph 20.7 mph 0.02 in Rain Light Rain
1:53 AM 46.0 °F 41.9 °F 43.0 °F 89% 29.82 in 4.0 mi SSE 8.1 mph 17.3 mph 0.08 in Rain Rain
3:02 AM 46.4 °F 42.9 °F 44.6 °F 93% 29.80 in 3.0 mi Variable 6.9 mph - 0.04 in Rain Heavy Rain
3:53 AM 45.0 °F 40.1 °F 41.0 °F 86% 29.80 in 4.0 mi SSW 9.2 mph 27.6 mph 0.20 in Rain Rain
4:53 AM 43.0 °F 37.7 °F 39.9 °F 89% 29.77 in 4.0 mi South 9.2 mph 19.6 mph 0.03 in Rain Light Rain
5:53 AM 44.1 °F 39.0 °F 41.0 °F 89% 29.75 in 4.0 mi South 9.2 mph 19.6 mph 0.08 in Rain Rain
6:39 AM 44.6 °F 38.1 °F 42.8 °F 93% 29.74 in 4.0 mi SSW 13.8 mph 23.0 mph 0.05 in   Overcast
6:53 AM 44.1 °F 37.7 °F 42.1 °F 93% 29.75 in 6.0 mi SSW 12.7 mph 24.2 mph 0.06 in Rain Light Rain
7:07 AM 44.6 °F 38.8 °F 42.8 °F 93% 29.75 in 7.0 mi SSW 11.5 mph 21.9 mph 0.00 in Rain Light Rain
7:45 AM 42.8 °F 37.0 °F 42.8 °F 100% 29.78 in 5.0 mi SSW 10.4 mph 25.3 mph 0.00 in Rain Light Rain
7:53 AM 44.1 °F 38.6 °F 42.1 °F 93% 29.78 in 5.0 mi SSW 10.4 mph 23.0 mph 0.00 in Rain Light Rain
8:53 AM 43.0 °F 37.2 °F 41.0 °F 93% 29.80 in 9.0 mi SSW 10.4 mph - 0.01 in   Overcast
9:37 AM 44.6 °F 40.2 °F 41.0 °F 87% 29.81 in 10.0 mi SSW 8.1 mph 16.1 mph N/A   Overcast
9:53 AM 44.1 °F 39.0 °F 41.0 °F 89% 29.82 in 10.0 mi SSW 9.2 mph - N/A   Overcast
10:04 AM 42.8 °F 36.6 °F 41.0 °F 93% 29.82 in 7.0 mi SSW 11.5 mph 18.4 mph 0.00 in Rain Light Rain
10:23 AM 44.6 °F 39.7 °F 41.0 °F 87% 29.82 in 10.0 mi SSW 9.2 mph - 0.00 in   Overcast
10:53 AM 43.0 °F 37.7 °F 41.0 °F 93% 29.83 in 2.5 mi SSW 9.2 mph - 0.00 in Rain Light Rain
11:09 AM 42.8 °F 38.6 °F 42.8 °F 100% 29.83 in 2.0 mi SSW 6.9 mph - 0.01 in Rain Light Rain
11:25 AM 42.8 °F 38.0 °F 41.0 °F 93% 29.83 in 6.0 mi SSW 8.1 mph - 0.01 in   Overcast
11:53 AM 43.0 °F 38.2 °F 41.0 °F 93% 29.84 in 10.0 mi South 8.1 mph 16.1 mph 0.01 in   Overcast
12:13 PM 42.8 °F 37.0 °F 41.0 °F 93% 29.84 in 9.0 mi SSW 10.4 mph - N/A   Overcast
12:27 PM 42.8 °F 38.0 °F 41.0 °F 93% 29.84 in 2.0 mi SSW 8.1 mph - 0.00 in Rain Light Rain
12:37 PM 42.8 °F 38.6 °F 41.0 °F 93% 29.84 in 7.0 mi SSW 6.9 mph - 0.00 in   Overcast
12:53 PM 43.0 °F 38.8 °F 41.0 °F 93% 29.84 in 10.0 mi SSW 6.9 mph - 0.00 in   Overcast
1:21 PM 42.8 °F 38.0 °F 41.0 °F 93% 29.84 in 7.0 mi SSW 8.1 mph - N/A   Overcast
1:29 PM 42.8 °F 37.5 °F 41.0 °F 93% 29.84 in 4.0 mi South 9.2 mph 18.4 mph 0.00 in Rain Light Rain
1:53 PM 43.0 °F 38.2 °F 41.0 °F 93% 29.84 in 5.0 mi SSW 8.1 mph 16.1 mph 0.01 in Rain Light Rain
2:18 PM 42.8 °F 37.0 °F 41.0 °F 93% 29.83 in 3.0 mi SSW 10.4 mph 16.1 mph 0.00 in Rain Light Rain
2:38 PM 42.8 °F 37.5 °F 41.0 °F 93% 29.84 in 2.0 mi SSW 9.2 mph 17.3 mph 0.00 in Rain Light Rain
2:53 PM 43.0 °F 37.7 °F 41.0 °F 93% 29.84 in 10.0 mi SSW 9.2 mph 19.6 mph 0.00 in   Overcast
3:06 PM 42.8 °F 37.0 °F 41.0 °F 93% 29.84 in 3.0 mi SSW 10.4 mph 18.4 mph 0.00 in Rain Light Rain
3:11 PM 42.8 °F 37.0 °F 41.0 °F 93% 29.84 in 3.0 mi SSW 10.4 mph 18.4 mph 0.00 in Rain Light Rain
3:35 PM 42.8 °F 37.5 °F 41.0 °F 93% 29.84 in 10.0 mi SSW 9.2 mph 18.4 mph 0.01 in Rain Light Rain
3:53 PM 42.1 °F 36.6 °F 41.0 °F 96% 29.84 in 6.0 mi SSW 9.2 mph - 0.01 in Rain Light Rain
3:55 PM 42.8 °F 37.0 °F 41.0 °F 93% 29.84 in 4.0 mi SSW 10.4 mph - 0.00 in Rain Light Rain
4:00 PM 42.8 °F 37.0 °F 41.0 °F 93% 29.84 in 2.5 mi SSW 10.4 mph - 0.00 in Rain Light Rain
4:07 PM 42.8 °F 37.5 °F 41.0 °F 93% 29.83 in 5.0 mi SSW 9.2 mph - 0.01 in Rain Light Rain
4:18 PM 42.8 °F 37.0 °F 39.2 °F 87% 29.84 in 10.0 mi SSW 10.4 mph 18.4 mph 0.01 in Rain Light Rain
4:53 PM 42.1 °F 37.1 °F 39.9 °F 92% 29.85 in 6.0 mi South 8.1 mph 19.6 mph 0.05 in Rain Light Rain
5:13 PM 42.8 °F 38.6 °F 39.2 °F 87% 29.85 in 6.0 mi SSW 6.9 mph - 0.03 in Rain Light Rain
5:49 PM 42.8 °F 37.5 °F 39.2 °F 87% 29.86 in 6.0 mi SSW 9.2 mph - 0.06 in Rain Rain
5:53 PM 42.1 °F 37.1 °F 39.9 °F 92% 29.86 in 7.0 mi SSW 8.1 mph - 0.06 in Rain Light Rain
6:02 PM 42.8 °F 38.0 °F 39.2 °F 87% 29.86 in 10.0 mi SSW 8.1 mph - 0.00 in Rain Light Rain
6:24 PM 42.8 °F 39.3 °F 39.2 °F 87% 29.86 in 6.0 mi SSW 5.8 mph - 0.01 in Rain Light Rain
6:53 PM 41.0 °F 37.1 °F 39.9 °F 96% 29.87 in 10.0 mi SSW 5.8 mph - 0.01 in   Overcast
7:30 PM 41.0 °F 37.1 °F 39.2 °F 93% 29.88 in 10.0 mi SSW 5.8 mph - 0.02 in   Overcast
7:53 PM 41.0 °F 36.4 °F 39.9 °F 96% 29.89 in 10.0 mi SSW 6.9 mph - 0.02 in   Overcast
8:06 PM 41.0 °F 37.1 °F 39.2 °F 93% 29.89 in 10.0 mi SSW 5.8 mph - N/A   Overcast
8:26 PM 41.0 °F 36.4 °F 39.2 °F 93% 29.90 in 2.5 mi WSW 6.9 mph - 0.00 in Rain Light Rain
8:35 PM 41.0 °F 38.0 °F 39.2 °F 93% 29.90 in 2.0 mi WSW 4.6 mph - 0.01 in Rain Light Rain
8:53 PM 39.9 °F 35.8 °F 39.0 °F 97% 29.92 in 10.0 mi SSW 5.8 mph - 0.01 in   Overcast
9:11 PM 39.2 °F 35.0 °F 39.2 °F 100% 29.92 in 2.0 mi SW 5.8 mph - 0.02 in Rain Light Rain
9:23 PM 39.2 °F 32.5 °F 39.2 °F 100% 29.93 in 3.0 mi West 10.4 mph 16.1 mph 0.03 in Rain Light Rain
9:53 PM 39.9 °F 37.8 °F 39.0 °F 97% 29.95 in 5.0 mi Variable 3.5 mph - 0.04 in Rain Light Rain
10:32 PM 39.2 °F 37.0 °F 37.4 °F 93% 29.96 in 10.0 mi SSW 3.5 mph - 0.02 in Rain Light Rain
10:53 PM 39.0 °F - 37.9 °F 96% 29.97 in 10.0 mi Calm Calm - 0.02 in Rain Light Rain
11:53 PM 37.9 °F - 36.0 °F 93% 29.99 in 10.0 mi Calm Calm - N/A   Overcast